Location: Newark
(14.6561°N, 91.2669°W)
Time: 06:12:19
(UTC+00:00)

Hubble Space Telescope - Visible Passes

Search period start: 15 September 2019 00:00
Search period end: 25 September 2019 00:00
Orbit: 536 x 540 km, 28.5° (Epoch: 14 September)

Date Brightness Start Highest point End Pass type
(mag) Time Alt. Az. Time Alt. Az. Time Alt. Az.
15 Sep 3.2 10:11:05 14° N 10:11:05 14° N 10:12:48 10° NNE visible
16 Sep 3.4 10:01:10 12° N 10:01:10 12° N 10:02:05 10° NNE visible
17 Sep 3.7 09:51:16 10° NNE 09:51:16 10° NNE 09:51:25 10° NNE visible
17 Sep 3.3 11:29:48 10° NNW 11:31:52 13° N 11:33:56 10° NE visible
18 Sep 3.2 11:19:04 10° NNW 11:21:29 15° N 11:23:52 10° NE visible
19 Sep 3.1 11:08:20 10° NNW 11:11:04 17° NNE 11:13:49 10° NE visible
20 Sep 2.9 10:57:36 10° NNW 11:00:39 20° NNE 11:03:43 10° ENE visible
21 Sep 2.7 10:47:20 12° NNW 10:50:13 23° NNE 10:53:33 10° ENE visible
22 Sep 2.4 10:37:40 19° NNW 10:39:45 29° NNE 10:43:21 10° E visible
23 Sep 2.0 10:28:04 29° NNW 10:29:16 36° NNE 10:33:05 10° E visible
24 Sep 3.2 01:46:53 10° SSW 01:47:36 14° SSW 01:47:36 14° SSW visible
24 Sep 1.4 10:18:31 46° N 10:18:46 47° NNE 10:22:44 10° E visible
